Volver al catálogo

ARIANE 44L DEB

LostHEO
NORAD 32998·DEBRIS·🇫🇷 France

Lanzado Oct 29, 1991 desde Guiana Space Centre

Loading…

Próximos Pases (próximas 24 horas)

TLE

ObsoletoSource: Space-Track

Época: May 30, 2026, 06:26 UTC

1 32998U 91075P   26150.26842109 -.00000179  00000-0 -13569-2 0  9994
2 32998   5.5496  97.9865 6630924 213.3754 329.6069  2.88452142245126

Sigue ARIANE 44L DEB en tiempo real con AllMySat

Download on the App Store